Location: Killam
(52.7910°N, 111.8608°W)
Time: 08:46:52
(UTC+00:00)

NOAA 15 - Pass Details

Date: 16 December 2025
Orbit: 793 x 809 km, 98.5° (Epoch: 24 January)

Event Time Altitude Azimuth Distance (km) Brightness Sun altitude
Rises 13:34:23 0° 25° (NNE) 3,318 7.9 -16.8°
Reaches altitude 10° 13:37:28 10° 44° (NE) 2,379 7.4 -16.3°
Maximum altitude 13:41:05 19° 88° (E) 1,847 7.4 -15.8°
Drops below altitude 10° 13:44:39 10° 131° (SE) 2,363 8.1 -15.3°
Sets 13:47:41 0° 150° (SSE) 3,285 8.6 -14.9°
